BEIDOU-3 M17 (C36)

Last updated on Wed Aug 26 2026 00:04:16 GMT+0000 (Coordinated Universal Time)

1 43706U 18093A 26237.31533081 -.00000007 00000+0 00000+0 0 9991 2 43706 54.1683 179.9527 0009157 299.4844 244.4530 1.86228460 52827
UTC large
Height (km)
Speed (km/s)
/
Latitude / Longitude
Inclination (degrees)
Orbital Period (minutes)
Azimuth
Elevation
Range (km)
Doppler Factor

Next 0 passes for location: London (51.5072 / 0.1276)

No passes found over London.
BEIDOU-3 M17 (C36)